www.pogodaiklimat.ru
Время
(UTC), дата
00 13.10
03 13.10
06 13.10
09 13.10
12 13.10
15 13.10
18 13.10
21 13.10
00 14.10
03 14.10
06 14.10
09 14.10
12 14.10
15 14.10
18 14.10
21 14.10
00 15.10
03 15.10
06 15.10
09 15.10
12 15.10
15 15.10
18 15.10
21 15.10
00 16.10
03 16.10
06 16.10
09 16.10
12 16.10
15 16.10
18 16.10
21 16.10
00 17.10
03 17.10
06 17.10
09 17.10
12 17.10
15 17.10
18 17.10
21 17.10
00 18.10
03 18.10
06 18.10
09 18.10
12 18.10
15 18.10
18 18.10
21 18.10
00 19.10
03 19.10
06 19.10
09 19.10
12 19.10
15 19.10
18 19.10
21 19.10
Ветер
(напр.,м/с)
Видим. Явления Облачность Т
(С)
Тd
(С)
f
(%)
Тe
(С)
Тes
(С)
Комфортность P
(гПа)
Po
(гПа)
Тmin
(С)
Tmax
(С)
R
(мм)
R24
(мм)
S
(см)
СЗ 5 50 км 9/1 1000 м
[Sc Ac trans Ci fib]
-9.4 -13.4 73 -17 -17 по сезону 1009.5 917.9
СЗ 4 50 км 10/0
[Ac As Cs]
-7.7 -13.7 62 -14 -14 по сезону 1008.8 917.7
СЗ 4 4000 м слаб. снег 10/0
[As op]
-8.4 -12.1 75 -15 -15 прохладно 1008.9 917.6
З 3 50 км в посл. час снег 10/0
[Ac As Cs]
-9.9 -12.1 84 -16 -16 по сезону 1008.9 917.2 -7.2 0.2
З 2 10 км слаб. снег 10/0
[As op]
-9.4 -11.0 88 -14 -14 по сезону 1008.4 916.9
З 3 4000 м слаб. снег 10/0
[As op]
-9.4 -11.0 88 -15 -15 по сезону 1007.3 915.9
З 2 4000 м слаб. снег 10/0
[As op]
-9.0 -10.6 88 -14 -14 по сезону 1006.3 915.1
СЗ 2 50 км {снег} 9/3 1000 м
[Sc Ac trans Ci fib]
-9.3 -10.9 88 -14 -14 по сезону 1005.4 914.2 -9.9 0.6 6
З 2 4000 м слаб. снег 10/1 1000 м
[Sc As op]
-8.7 -10.2 89 -13 -13 по сезону 1004.7 913.6 -10.4
С 3 50 км {снег} 10/3 600 м
[Frnb Cs]
-5.4 -10.0 70 -11 -10 по сезону 1002.0 912.4
СЗ 3 50 км {снег} 10/4 600 м
[Sc Cs]
-5.3 -9.9 70 -11 -10 по сезону 1001.8 912.2
СЗ 3 50 км 10/0
[Ac As Cs]
-7.8 -12.3 70 -13 -13 по сезону 1002.9 912.4 -4.7 0.1
З 3 4000 м слаб. снег 10/0
[As op]
-7.8 -11.4 75 -13 -13 по сезону 1003.2 912.6
З 4 20 км слаб. снег 10/0
[Ac As Cs]
-8.4 -10.3 86 -15 -15 по сезону 1002.5 911.8
З 3 50 км слаб. снег 10/0
[Ac trans Cs]
-9.5 -11.6 85 -15 -15 по сезону 1003.3 912.3
З 3 20 км слаб. снег 10/0
[Ac As Cs]
-10.1 -12.1 85 -16 -16 по сезону 1004.3 912.8 -10.1 0.2 6
СЗ 5 20 км в посл. час снег 10/1 600 м
[Cu hum As trans Cs]
-8.4 -10.7 83 -16 -16 по сезону 1004.8 913.9
З 4 50 км слаб. снег 10/3 600 м
[Cu hum Ac trans Ci fib]
-7.1 -11.4 71 -14 -13 по сезону 1004.8 914.3
СЗ 4 50 км {снег} 6/3 1000 м
[Sc Ci fib]
-6.4 -11.9 65 -13 -13 по сезону 1005.6 915.3
З 3 50 км 5/1 1000 м
[Sc Ci fib]
-11.7 -15.2 75 -18 -18 по сезону 1009.0 916.6 -6.0 0.0
З 1 50 км 3/0
[Ci fib]
-16.0 -18.7 80 -19 -19 по сезону 1011.7 917.9
штиль 0 50 км 1/0
[Ci fib]
-18.8 -20.7 85 -19 -19 по сезону 1014.5 919.2
штиль 0 50 км 1/0
[Ci fib]
-16.9 -18.8 85 -17 -17 по сезону 1015.4 920.7
штиль 0 50 км 1/0
[Ac trans]
-20.2 -22.1 85 -20 -20 по сезону 1018.2 922.0 -20.2 6
штиль 0 50 км 3/0
[Ac trans Ci fib]
-14.5 -16.5 85 -15 -14 по сезону 1017.4 923.4 -20.3
С 2 50 км 4/0
[Ci fib]
-10.1 -14.5 70 -15 -13 по сезону 1016.4 923.8
СВ 2 50 км 8/0
[Ci fib]
-9.6 -15.4 63 -14 -14 прохладно 1017.5 925.0
З 2 50 км 3/0
[Ci fib]
-16.0 -18.7 80 -21 -21 холодно 1021.1 926.0 -8.7
ЮЗ 1 50 км 3/0
[Ci fib]
-19.6 -21.5 85 -23 -23 холодно 1023.2 926.7
штиль 0 50 км 3/0
[Ci fib]
-22.8 -24.6 85 -23 -23 прохладно 1024.5 926.8
штиль 0 50 км 3/0
[Ci fib]
-24.9 -27.4 80 -25 -25 холодно 1025.7 927.0
штиль 0 50 км 1/0
[Ci fib]
-25.6 -28.1 79 -26 -26 очень
холодно
1025.6 926.7 -25.6 6
Ю 1 50 км 3/0
[Ci fib]
-18.1 -20.7 80 -21 -20 холодно 1022.2 926.4
С 2 50 км 10/0
[Ac lent Cs]
-13.7 -16.4 80 -18 -18 холодно 1018.7 924.7
СВ 2 50 км 9/3 1000 м
[Sc Ac trans Cs]
-12.3 -15.0 80 -17 -17 холодно 1017.4 924.1
штиль 0 20 км слаб. снег 10/6 1050 м
[Sc Ac As]
-11.2 -14.0 80 -11 -11 по сезону 1017.1 924.1 -11.0 0.0
СВ 1 50 км слаб. снег 10/8 800 м
[Sc Ac As]
-11.0 -13.8 80 -13 -13 по сезону 1016.8 923.8
штиль 0 50 км слаб. снег 10/8 870 м
[Sc Ac As]
-10.7 -13.5 80 -11 -11 по сезону 1016.5 923.7
В 1 50 км {снег} 10/10 750 м
[Sc]
-10.6 -13.4 80 -13 -13 по сезону 1016.3 923.5
В 1 50 км слаб. снег 10/8 1140 м
[Sc As op]
-10.2 -13.0 80 -12 -12 по сезону 1016.1 923.5 -11.2 0.0 6
СВ 1 4000 м слаб. снег 10/3 600 м
[Sc As trans Cs]
-9.7 -11.4 87 +10 +10 тепло 1016.4 924.0
штиль 0 50 км слаб. снег 9/1 1000 м
[Sc Ac trans Ci fib]
-7.6 -10.6 79 -8 -7 по сезону 1016.5 924.7
штиль 0 50 км {снег} 10/10 1200 м
[Sc]
-6.4 -9.6 78 -7 -7 по сезону 1017.0 925.6
СВ 1 50 км 10/10 1500 м
[Sc]
-7.0 -9.5 82 -9 -9 по сезону 1017.6 926.1 -5.8 1
С 1 50 км 10/10 1500 м
[Sc]
-7.2 -9.3 85 -10 -10 по сезону 1018.6 926.8
С 2 50 км 10/10 1230 м
[Sc]
-7.0 -8.7 88 -11 -11 по сезону 1018.4 926.8
С 1 10 км слаб. снег 10/4 1000 м
[Sc Ac As Cs]
-7.0 -8.3 90 -9 -9 по сезону 1018.6 927.0
З 1 10 км слаб. снег 10/4 1000 м
[Sc Ac As Cs]
-9.0 -10.1 92 -11 -11 по сезону 1020.6 928.1 -9.0 0.3 6
З 1 50 км {снег} 10/8 1470 м
[Sc Ac trans Ci fib]
-6.5 -7.7 91 -9 -9 по сезону 1020.8 929.2
штиль 0 50 км 10/10 1500 м
[Sc]
-4.5 -6.8 84 -5 -5 по сезону 1020.7 929.7
В 2 50 км 10/10 1500 м
[Sc]
-3.9 -6.1 85 -8 -8 по сезону 1020.6 929.7
СВ 2 50 км 10/10 1500 м
[Sc]
-4.8 -6.1 91 -9 -9 по сезону 1020.8 929.6 -3.6 0.0
СВ 2 50 км 10/10 1500 м
[Sc]
-5.0 -6.7 88 -9 -9 по сезону 1020.4 929.3
В 2 50 км 10/0
[Ac trans Cs]
-6.0 -7.5 89 -10 -10 по сезону 1019.2 927.8
СВ 2 50 км 5/0
[Ci fib]
-11.8 -13.1 90 -16 -16 прохладно 1020.3 926.8
Ю 1 50 км 9/0
[Cs]
-15.1 -16.4 90 -18 -18 холодно 1020.8 926.1 -15.1 6
Местоположение метеостанции Оймякон (Якутия, Россия): широта 63.25 долгота 143.10 высота над уровнем моря 740 м.
В архиве по умолчанию представлена погода в Оймяконе за последнюю неделю. Архивные данные за месяц целиком и за предыдущие месяцы, начиная с января 2011 года, Вы можете получить, выбрав интересующий диапазон дат из раскрывающегося списка и нажав кнопку "Найти!".
*Определитесь, кто Вы:
Внимание! Время в таблицах - всемирное. Для получения местного времени необходимо прибавить поправку, которая равна 10 ч.
Смотрите также архив погоды в соседних городах и на ближайших метеорологических станциях:
Партнеры нашего сайта:      
Пояснения к столбцам:
  • Ветер - указаны скорость ветра в м/с - средняя за 10 мин, порывы в срок и между сроками (в фигурных скобках) и направление, откуда дует ветер: С - северный,
  • СВ - северо-восточный, В - восточный, ЮВ - юго-восточный, Ю - южный, ЮЗ - юго-западный, З - западный, СЗ - северо-западный.
  • Видимость - горизонтальная дальность видимости в метрах или километрах. При видимости от 1 до 10 км при отсутствии осадков обычно наблюдается дымка, при ухудшении видимости до 1 км и менее - туман. В сухую погоду видимость может ухудшаться дымом, пылью или мглою.
  • Явления - указаны атмосферные явления, наблюдавшиеся в срок или в последний час перед сроком; фигурными скобками обозначены явления, наблюдавшиеся между сроками (за 1-3 часа до срока); квадратными скобками обозначены град или гололедные отложения с указанием их диаметра в мм.
  • Облачность - указаны через наклонную черту общая и нижняя облачность в баллах и высота нижней границы облаков в метрах; квадратными скобками обозначены формы облаков: Ci - перистые, Cs - перисто-слоистые, Cc - перисто-кучевые, Ac - высококучевые, As - высокослоистые, Sc - слоисто-кучевые, Ns - слоисто-дождевые, Cu - кучевые, Cb - кучево-дождевые. Подробнее классификацию облаков см. в Атласе облаков (PDF).
  • T - Температура воздуха - температура, измеренная на высоте 2 м над землей.
  • Td - Температура точки росы - температура, при понижении до которой содержащийся в воздухе водяной пар достигнет насыщения.
  • f - Относительная влажность воздуха - влажноcть воздуха, измеренная на высоте 2 м над землей.
  • Te - Эффективная температура - температура, которую ощущает одетый по сезону человек в тени. Характеристика душности погоды. При расчете учитывается влияние влажности воздуха и скорости ветра на теплоощущения человека.
  • Tes - Эффективная температура на солнце - температура, которую ощущает человек, с поправкой на солнечный нагрев. Характеристика знойности погоды. Зависит от высоты солнца над горизонтом, облачности и скорости ветра. Ночью, в пасмурную погоду, а также при ветре 12 м/с и более поправка равна нулю.
  • P - Атмосферное давление - приведенное к уровню моря атмосферное давление.
  • Po - Атмосферное давление - измеренное на уровне метеостанции атмосферное давление.
  • Tmin - Минимальная температура - минимум температуры воздуха на высоте 2 м над землей.
  • Tmax - Максимальная температура - максимум температуры воздуха на высоте 2 м над землей.
  • R - Количество осадков - Количество выпавших осадков за период времени, мм. При наведении курсора мыши на число - период времени, за который выпало указанное количество осадков.
  • R24 - Количество осадков - Количество выпавших осадков за 24 часа, мм.
  • S - Снежный покров - Высота снежного покрова, см. При наведении курсора мыши на число - состояние снежного покрова и степень покрытия местности в баллах.